Preview of NWS' New Version of Forecast
This preview is not operational and should not be used for support decisions.

Regional Weather Roundup (RWR)

Issued by National Weather Service (NWS)

                            
000
ASUS43 KBIS 252002
RWRND 

NORTH DAKOTA REGIONAL WEATHER ROUNDUP
NATIONAL WEATHER SERVICE BISMARCK ND
300 PM CDT THU APR 25 2019

NOTE: "FAIR" INDICATES FEW OR NO CLOUDS BELOW 12,000 FEET WITH NO
SIGNIFICANT WEATHER AND/OR OBSTRUCTIONS TO VISIBILITY.


NDZ001>003-009>011-017-252100-
NORTHWEST NORTH DAKOTA
  
CITY           SKY/WX    TMP DP  RH WIND       PRES   REMARKS
WILLISTON      FAIR      56  10  16 NW28G51   30.16S                  
MINOT          FAIR      56  13  18 W36G47    30.04F                  
MINOT AFB      FAIR      56  17  22 NW38G48   30.02R                  
$$
 
NDZ018>021-031>035-040>046-252100-
SOUTHWEST NORTH DAKOTA
  
CITY           SKY/WX    TMP DP  RH WIND       PRES   REMARKS
BISMARCK       FAIR      60  14  16 NW23G38   30.09R                  
DICKINSON      FAIR      55  13  18 NW28G40   30.14S                  
GARRISON         N/A     55  10  16 NW30G47   30.07S                  
HETTINGER ARPT FAIR      57  20  23 NW23G35   30.17R                  
$$
 
NDZ004>008-012>016-024-026-027-054-252100-
NORTHEAST NORTH DAKOTA
  
CITY           SKY/WX    TMP DP  RH WIND       PRES   REMARKS
GRAND FORKS    LGT RAIN  60  27  28 NW30G46   29.90R                  
GRND FRKS AFB  SUNNY     61  21  21 NW29G35   29.92S                  
DEVILS LAKE    FAIR      54  15  21 W35G44    29.95S                  
$$
 
NDZ022-023-025-028>030-036>039-047>053-252100-
SOUTHEAST NORTH DAKOTA
  
CITY           SKY/WX    TMP DP  RH WIND       PRES   REMARKS
FARGO          FAIR      66  22  18 NW30G38   29.92S                  
JAMESTOWN      FAIR      61  18  18 NW26G38   29.98R                  
$$